SM7GXQ Weather Reports


time (UTC)temp
F
wind
direction
speed
knots
gust
knots
rain 1hr
in
rain 24hr
in
rain mn
in
humidity
%
barometer
mb
20260508111505 57 30 7.8 14.8 0.00 0.00 0.00 34 1024.0
20260508110004 56 46 7.0 14.8 0.00 0.00 0.00 35 1024.0
20260508100005 56 80 5.2 14.8 0.00 0.00 0.00 35 1023.9
20260508094504 56 83 6.1 13.0 0.00 0.00 0.00 34 1023.9
20260508091504 57 82 7.0 13.0 0.00 0.00 0.00 36 1023.7
20260508090004 56 76 8.7 13.0 0.00 0.00 0.00 37 1023.7
20260508084504 56 113 7.0 13.0 0.00 0.00 0.00 38 1023.7
20260508080004 55 55 7.8 13.9 0.00 0.00 0.00 33 1023.5
20260508074504 55 72 4.3 11.3 0.00 0.00 0.00 34 1023.5
20260508043005 44 60 2.6 4.3 0.00 0.00 0.00 79 1022.1
20260508040004 39 79 1.7 2.6 0.00 0.00 0.00 86 1021.7
20260508033005 35 79 0.0 0.9 0.00 0.00 0.00 86 1021.7
20260508031505 34 79 0.0 1.7 0.00 0.00 0.00 85 1021.5
20260508021504 34 78 0.0 1.7 0.00 0.00 0.00 84 1021.1
20260508020004 35 74 0.0 2.6 0.00 0.00 0.00 84 1020.9
20260508014504 35 74 0.9 2.6 0.00 0.00 0.00 86 1020.4
20260508013005 35 83 0.9 2.6 0.00 0.00 0.00 87 1020.4
20260508010004 34 92 0.9 4.3 0.00 0.00 0.00 88 1020.4
20260508003005 34 135 0.0 0.9 0.00 0.00 0.00 87 1020.2
20260508001504 34 135 0.0 0.9 0.00 0.00 0.00 86 1020.1
20260507234504 35 135 0.0 0.9 0.00 0.00 0.00 84 1020.1
20260507231504 36 135 0.9 1.7 0.00 0.00 0.00 83 1020.0
20260507230005 36 135 0.0 0.9 0.00 0.00 0.00 81 1020.3
20260507224505 37 135 0.9 1.7 0.00 0.00 0.00 80 1019.4
20260507223006 37 135 0.9 1.7 0.00 0.00 0.00 78 1019.4
20260507221504 37 135 0.9 1.7 0.00 0.00 0.00 77 1019.4
20260507214505 38 135 0.9 0.9 0.00 0.00 0.00 73 1018.6
20260507213006 39 135 0.0 0.9 0.00 0.00 0.00 71 1018.6
20260507210006 40 135 0.9 0.9 0.00 0.00 0.00 66 1018.6
20260507201504 42 135 0.9 2.6 0.00 0.00 0.00 59 1017.9
20260507200004 43 134 0.9 2.6 0.00 0.00 0.00 57 1017.9
20260507194504 44 134 0.0 2.6 0.00 0.00 0.00 54 1017.9
20260507193005 45 134 0.0 2.6 0.00 0.00 0.00 51 1017.9
20260507191505 46 134 0.9 4.3 0.00 0.00 0.00 51 1017.4
20260507181504 51 126 2.6 5.2 0.00 0.00 0.00 31 1017.2
20260507180005 52 147 2.6 5.2 0.00 0.00 0.00 22 1017.1
20260507174504 52 145 0.9 5.2 0.00 0.00 0.00 22 1016.6
20260507173005 53 196 0.9 4.3 0.00 0.00 0.00 25 1016.6
20260507171504 54 143 2.6 6.1 0.00 0.00 0.00 22 1016.6
20260507170005 55 136 2.6 5.2 0.00 0.00 0.00 20 1016.4
20260507164504 55 125 2.6 7.0 0.00 0.00 0.00 25 1016.2
20260507163005 55 141 2.6 6.1 0.00 0.00 0.00 21 1016.2
20260507153004 56 145 1.7 7.8 0.00 0.00 0.00 20 1015.8
20260507151504 56 122 3.5 10.4 0.00 0.00 0.00 18 1015.8
20260507144506 57 102 4.3 10.4 0.00 0.00 0.00 27 1015.4
20260507141504 57 105 5.2 14.8 0.00 0.00 0.00 27 1015.4
20260507140005 57 62 5.2 14.8 0.00 0.00 0.00 27 1015.3
20260507130005 57 68 2.6 13.0 0.00 0.00 0.00 35 1014.9
20260507124504 57 84 2.6 10.4 0.00 0.00 0.00 37 1014.9
20260507123005 57 53 4.3 10.4 0.00 0.00 0.00 36 1014.9
20260507121504 57 74 5.2 10.4 0.00 0.00 0.00 36 1014.8